Time,TemperatureF,DewpointF,PressureIn,WindDirection,WindDirectionDegrees,WindSpeedMPH,WindSpeedGustMPH,Humidity,HourlyPrecipIn,Conditions,Clouds,dailyrainin,SolarRadiationWatts/m^2,SoftwareType,DateUTC
2013-03-10 00:32:00,28.0,-2.0,-100.00,WSW,249,0.0,12.0,27,-99.99,,,-99.99,0.000000,,2013-03-10 07:32:00,
2013-03-10 01:42:00,29.0,-5.0,-100.00,West,268,0.0,0.0,22,-99.99,,,-99.99,0.000000,,2013-03-10 08:42:00,
2013-03-10 03:42:00,29.0,-7.0,-100.00,WSW,252,0.0,0.0,20,-99.99,,,-99.99,0.000000,,2013-03-10 09:42:00,
2013-03-10 04:42:00,25.0,-7.0,-100.00,WSW,241,4.0,10.0,24,-99.99,,,-99.99,0.000000,,2013-03-10 10:42:00,
2013-03-10 07:42:00,23.0,9.0,-100.00,West,275,0.0,0.0,54,-99.99,,,-99.99,0.000000,,2013-03-10 13:42:00,
2013-03-10 07:52:00,23.0,9.0,-100.00,West,275,0.0,0.0,54,-99.99,,,-99.99,0.000000,,2013-03-10 13:52:00,
2013-03-10 08:01:00,23.0,9.0,-100.00,West,275,0.0,0.0,54,-99.99,,,-99.99,0.000000,,2013-03-10 14:01:00,
2013-03-10 08:11:00,23.0,9.0,-100.00,West,275,0.0,0.0,54,-99.99,,,-99.99,0.000000,,2013-03-10 14:11:00,
2013-03-10 08:42:00,23.0,9.0,-100.00,WSW,252,0.0,0.0,54,-99.99,,,-99.99,11.000000,,2013-03-10 14:42:00,
2013-03-10 08:52:00,23.0,9.0,-100.00,WSW,252,0.0,0.0,54,-99.99,,,-99.99,11.000000,,2013-03-10 14:52:00,
2013-03-10 09:01:00,23.0,9.0,-100.00,WSW,252,0.0,0.0,54,-99.99,,,-99.99,11.000000,,2013-03-10 15:01:00,
2013-03-10 09:11:00,23.0,9.0,-100.00,WSW,252,0.0,0.0,54,-99.99,,,-99.99,11.000000,,2013-03-10 15:11:00,
2013-03-10 09:42:00,33.0,11.0,-100.00,WSW,252,4.0,8.0,40,-99.99,,,-99.99,216.000000,,2013-03-10 15:42:00,
2013-03-10 09:52:00,33.0,11.0,-100.00,WSW,252,4.0,8.0,40,-99.99,,,-99.99,216.000000,,2013-03-10 15:52:00,
2013-03-10 10:11:00,33.0,11.0,-100.00,WSW,252,4.0,8.0,40,-99.99,,,-99.99,216.000000,,2013-03-10 16:11:00,
2013-03-10 10:42:00,37.0,10.0,-100.00,East,81,7.0,9.0,32,-99.99,,,-99.99,431.000000,,2013-03-10 16:42:00,
2013-03-10 12:42:00,39.0,11.0,-100.00,East,95,9.0,16.0,31,-99.99,,,-99.99,761.000000,,2013-03-10 18:42:00,
2013-03-10 12:52:00,39.0,11.0,-100.00,East,95,9.0,16.0,31,-99.99,,,-99.99,761.000000,,2013-03-10 18:52:00,
2013-03-10 13:01:00,39.0,11.0,-100.00,East,95,9.0,16.0,31,-99.99,,,-99.99,761.000000,,2013-03-10 19:01:00,
2013-03-10 13:11:00,39.0,11.0,-100.00,East,95,9.0,16.0,31,-99.99,,,-99.99,761.000000,,2013-03-10 19:11:00,
2013-03-10 13:42:00,40.0,10.0,-100.00,East,99,10.0,16.0,29,-99.99,,,-99.99,832.000000,,2013-03-10 19:42:00,
2013-03-10 13:53:00,40.0,10.0,-100.00,East,99,10.0,16.0,29,-99.99,,,-99.99,832.000000,,2013-03-10 19:53:00,
2013-03-10 14:02:00,40.0,10.0,-100.00,East,99,10.0,16.0,29,-99.99,,,-99.99,832.000000,,2013-03-10 20:02:00,
2013-03-10 14:12:00,40.0,10.0,-100.00,East,99,10.0,16.0,29,-99.99,,,-99.99,832.000000,,2013-03-10 20:12:00,
2013-03-10 14:32:00,42.0,11.0,-100.00,ESE,116,9.0,18.0,28,-99.99,,,-99.99,796.000000,,2013-03-10 20:32:00,
2013-03-10 14:43:00,42.0,11.0,-100.00,ESE,116,9.0,18.0,28,-99.99,,,-99.99,796.000000,,2013-03-10 20:43:00,
2013-03-10 14:53:00,42.0,11.0,-100.00,ESE,116,9.0,18.0,28,-99.99,,,-99.99,796.000000,,2013-03-10 20:53:00,
2013-03-10 15:02:00,42.0,11.0,-100.00,ESE,116,9.0,18.0,28,-99.99,,,-99.99,796.000000,,2013-03-10 21:02:00,
2013-03-10 15:12:00,42.0,11.0,-100.00,ESE,116,9.0,18.0,28,-99.99,,,-99.99,796.000000,,2013-03-10 21:12:00,
2013-03-10 15:33:00,43.0,12.0,-100.00,ESE,107,7.0,15.0,28,-99.99,,,-99.99,774.000000,,2013-03-10 21:33:00,
2013-03-10 15:43:00,43.0,12.0,-100.00,ESE,107,7.0,15.0,28,-99.99,,,-99.99,774.000000,,2013-03-10 21:43:00,
2013-03-10 15:52:00,43.0,12.0,-100.00,ESE,107,7.0,15.0,28,-99.99,,,-99.99,774.000000,,2013-03-10 21:52:00,
2013-03-10 16:02:00,43.0,12.0,-100.00,ESE,107,7.0,15.0,28,-99.99,,,-99.99,774.000000,,2013-03-10 22:02:00,
2013-03-10 16:11:00,43.0,12.0,-100.00,ESE,107,7.0,15.0,28,-99.99,,,-99.99,774.000000,,2013-03-10 22:11:00,
2013-03-10 16:43:00,43.0,12.0,-100.00,ESE,106,8.0,15.0,28,-99.99,,,-99.99,655.000000,,2013-03-10 22:43:00,
2013-03-10 16:53:00,43.0,12.0,-100.00,ESE,106,8.0,15.0,28,-99.99,,,-99.99,655.000000,,2013-03-10 22:53:00,
2013-03-10 17:02:00,43.0,12.0,-100.00,ESE,106,8.0,15.0,28,-99.99,,,-99.99,655.000000,,2013-03-10 23:02:00,
2013-03-10 17:12:00,43.0,12.0,-100.00,ESE,106,8.0,15.0,28,-99.99,,,-99.99,655.000000,,2013-03-10 23:12:00,
2013-03-10 17:33:00,39.0,14.0,-100.00,East,96,7.0,14.0,35,-99.99,,,-99.99,326.000000,,2013-03-10 23:33:00,
2013-03-10 17:43:00,39.0,14.0,-100.00,East,96,7.0,14.0,35,-99.99,,,-99.99,326.000000,,2013-03-10 23:43:00,
2013-03-10 17:52:00,39.0,14.0,-100.00,East,96,7.0,14.0,35,-99.99,,,-99.99,326.000000,,2013-03-10 23:52:00,
2013-03-10 18:02:00,39.0,14.0,-100.00,East,96,7.0,14.0,35,-99.99,,,-99.99,326.000000,,2013-03-11 00:02:00,
2013-03-10 18:12:00,39.0,14.0,-100.00,East,96,7.0,14.0,35,-99.99,,,-99.99,326.000000,,2013-03-11 00:12:00,
2013-03-10 18:43:00,39.0,14.0,-100.00,ENE,63,5.0,9.0,35,-99.99,,,-99.99,187.000000,,2013-03-11 00:43:00,
2013-03-10 18:53:00,39.0,14.0,-100.00,ENE,63,5.0,9.0,35,-99.99,,,-99.99,187.000000,,2013-03-11 00:53:00,
2013-03-10 19:02:00,39.0,14.0,-100.00,ENE,63,5.0,9.0,35,-99.99,,,-99.99,187.000000,,2013-03-11 01:02:00,
2013-03-10 19:12:00,39.0,14.0,-100.00,ENE,63,5.0,9.0,35,-99.99,,,-99.99,187.000000,,2013-03-11 01:12:00,
2013-03-10 19:43:00,35.0,17.0,-100.00,SW,231,0.0,6.0,47,-99.99,,,-99.99,43.000000,,2013-03-11 01:43:00,
2013-03-10 19:53:00,35.0,17.0,-100.00,SW,231,0.0,6.0,47,-99.99,,,-99.99,43.000000,,2013-03-11 01:53:00,
2013-03-10 20:02:00,35.0,17.0,-100.00,SW,231,0.0,6.0,47,-99.99,,,-99.99,43.000000,,2013-03-11 02:02:00,
2013-03-10 20:12:00,35.0,17.0,-100.00,SW,231,0.0,6.0,47,-99.99,,,-99.99,43.000000,,2013-03-11 02:12:00,
2013-03-10 20:42:00,31.0,18.0,-100.00,WSW,255,2.0,4.0,58,-99.99,,,-99.99,0.000000,,2013-03-11 02:42:00,
2013-03-10 20:52:00,31.0,18.0,-100.00,WSW,255,2.0,4.0,58,-99.99,,,-99.99,0.000000,,2013-03-11 02:52:00,
2013-03-10 21:02:00,31.0,18.0,-100.00,WSW,255,2.0,4.0,58,-99.99,,,-99.99,0.000000,,2013-03-11 03:02:00,
2013-03-10 21:12:00,31.0,18.0,-100.00,WSW,255,2.0,4.0,58,-99.99,,,-99.99,0.000000,,2013-03-11 03:12:00,
2013-03-10 21:32:00,32.0,16.0,-100.00,WSW,245,1.0,4.0,52,-99.99,,,-99.99,0.000000,,2013-03-11 03:32:00,
2013-03-10 21:43:00,32.0,16.0,-100.00,WSW,245,1.0,4.0,52,-99.99,,,-99.99,0.000000,,2013-03-11 03:43:00,
2013-03-10 21:52:00,32.0,16.0,-100.00,WSW,245,1.0,4.0,52,-99.99,,,-99.99,0.000000,,2013-03-11 03:52:00,
2013-03-10 22:02:00,32.0,16.0,-100.00,WSW,245,1.0,4.0,52,-99.99,,,-99.99,0.000000,,2013-03-11 04:02:00,
2013-03-10 22:12:00,32.0,16.0,-100.00,WSW,245,1.0,4.0,52,-99.99,,,-99.99,0.000000,,2013-03-11 04:12:00,
2013-03-10 22:33:00,32.0,15.0,-100.00,West,264,0.0,7.0,50,-99.99,,,-99.99,0.000000,,2013-03-11 04:33:00,
2013-03-10 22:43:00,32.0,15.0,-100.00,West,264,0.0,7.0,50,-99.99,,,-99.99,0.000000,,2013-03-11 04:43:00,
2013-03-10 22:53:00,32.0,15.0,-100.00,West,264,0.0,7.0,50,-99.99,,,-99.99,0.000000,,2013-03-11 04:53:00,
2013-03-10 23:03:00,32.0,15.0,-100.00,West,264,0.0,7.0,50,-99.99,,,-99.99,0.000000,,2013-03-11 05:03:00,
2013-03-10 23:11:00,32.0,15.0,-100.00,West,264,0.0,7.0,50,-99.99,,,-99.99,0.000000,,2013-03-11 05:11:00,
2013-03-10 23:32:00,31.0,15.0,-100.00,WNW,282,0.0,0.0,51,-99.99,,,-99.99,0.000000,,2013-03-11 05:32:00,
2013-03-10 23:43:00,31.0,15.0,-100.00,WNW,282,0.0,0.0,51,-99.99,,,-99.99,0.000000,,2013-03-11 05:43:00,
2013-03-10 23:52:00,31.0,15.0,-100.00,WNW,282,0.0,0.0,51,-99.99,,,-99.99,0.000000,,2013-03-11 05:52:00,